Location: Ayer Observatory
(42.2600°N, 71.0700°W)
Time: 07:50:22
(UTC-04:00)

FO-29 - Pass Details

Date: 29 August 2019
Orbit: 800 x 1321 km, 98.6° (Epoch: 22 September)

Event Time Altitude Azimuth Distance (km) Brightness Sun altitude
Exits shadow 02:50:05 43° 93° (E) 1,122 9.9 -31.0°
Maximum altitude 02:50:47 46° 70° (ENE) 1,078 10.0 -30.9°
Drops below altitude 10° 02:55:43 10° 359° (N) 2,390 12.1 -30.3°
Sets 02:58:08 0° 353° (N) 3,342 12.9 -30.1°
